TimeCDT,TemperatureF,Dew PointF,Humidity,Sea Level PressureIn,VisibilityMPH,Wind Direction,Wind SpeedMPH,Gust SpeedMPH,PrecipitationIn,Events,Conditions,WindDirDegrees,DateUTC
12:53 AM,64.0,57.9,80,30.09,10.0,Calm,Calm,-,N/A,,Scattered Clouds,0,2013-07-29 05:53:00
1:53 AM,63.0,57.9,84,30.09,10.0,Calm,Calm,-,N/A,,Mostly Cloudy,0,2013-07-29 06:53:00
2:53 AM,63.0,59.0,87,30.09,10.0,Calm,Calm,-,N/A,,Mostly Cloudy,0,2013-07-29 07:53:00
3:53 AM,62.1,57.9,86,30.09,10.0,Calm,Calm,-,N/A,,Mostly Cloudy,0,2013-07-29 08:53:00
4:53 AM,61.0,57.9,90,30.12,10.0,Calm,Calm,-,N/A,,Mostly Cloudy,0,2013-07-29 09:53:00
5:53 AM,62.1,57.9,86,30.14,10.0,Calm,Calm,-,N/A,,Mostly Cloudy,0,2013-07-29 10:53:00
6:53 AM,64.0,60.1,87,30.14,10.0,Calm,Calm,-,N/A,,Mostly Cloudy,0,2013-07-29 11:53:00
7:53 AM,66.9,57.9,73,30.17,10.0,North,3.5,-,N/A,,Mostly Cloudy,10,2013-07-29 12:53:00
8:53 AM,69.1,55.9,63,30.19,10.0,Calm,Calm,-,N/A,,Mostly Cloudy,0,2013-07-29 13:53:00
9:53 AM,73.9,55.0,52,30.19,10.0,East,3.5,-,N/A,,Mostly Cloudy,90,2013-07-29 14:53:00
10:53 AM,75.9,52.0,43,30.19,10.0,ESE,3.5,-,N/A,,Mostly Cloudy,110,2013-07-29 15:53:00
11:53 AM,77.0,54.0,45,30.19,10.0,ENE,9.2,-,N/A,,Mostly Cloudy,70,2013-07-29 16:53:00
12:53 PM,79.0,52.0,39,30.18,10.0,SE,5.8,-,N/A,,Mostly Cloudy,140,2013-07-29 17:53:00
1:53 PM,81.0,54.0,39,30.17,10.0,East,3.5,-,N/A,,Mostly Cloudy,90,2013-07-29 18:53:00
2:53 PM,81.0,54.0,39,30.16,10.0,SSE,6.9,-,N/A,,Mostly Cloudy,150,2013-07-29 19:53:00
3:53 PM,80.1,53.1,39,30.16,10.0,ESE,5.8,-,N/A,,Mostly Cloudy,120,2013-07-29 20:53:00
4:53 PM,80.1,53.1,39,30.15,10.0,ESE,6.9,-,N/A,,Mostly Cloudy,110,2013-07-29 21:53:00
5:53 PM,79.0,54.0,42,30.15,10.0,East,3.5,-,N/A,,Mostly Cloudy,80,2013-07-29 22:53:00
6:53 PM,78.1,54.0,43,30.15,10.0,ENE,6.9,-,N/A,,Mostly Cloudy,70,2013-07-29 23:53:00
7:53 PM,75.9,57.9,54,30.16,10.0,ENE,5.8,-,N/A,,Mostly Cloudy,70,2013-07-30 00:53:00
8:53 PM,73.9,59.0,59,30.17,10.0,East,4.6,-,N/A,,Mostly Cloudy,80,2013-07-30 01:53:00
9:53 PM,73.0,60.1,64,30.17,10.0,ESE,4.6,-,N/A,,Mostly Cloudy,110,2013-07-30 02:53:00
10:53 PM,72.0,61.0,68,30.17,10.0,East,5.8,-,N/A,,Mostly Cloudy,90,2013-07-30 03:53:00
11:53 PM,70.0,61.0,73,30.19,10.0,South,3.5,-,N/A,,Mostly Cloudy,180,2013-07-30 04:53:00